Simultaneous Nadir Overpasses (SNOs) Predictions

Prediction of SNOs between LANDSAT-8 and NOAA-19 Satellite Orbit:

Table of predicted SNOs for the next 14.0 days since TLE Epoch: 2/13/2021
Index Date (LANDSAT-8) Time (LANDSAT-8) Lat,Lon (LANDSAT-8) SZA (LANDSAT-8 ) Date (NOAA-19) Time (NOAA-19) Lat,Lon (NOAA-19) SZA (NOAA-19 ) Distance(km) Time Diff (sec)
1 02/15/2021 05:34:35 80.24, 125.86 93.74 02/15/2021 05:33:36 80.22, 125.94 93.71 2.33 59
2 02/15/2021 06:24:03 -80.20, -66.83 86.33 02/15/2021 06:24:33 -80.21, -66.69 86.30 3.05 30
3 02/17/2021 11:57:45 80.23, 30.03 92.95 02/17/2021 11:57:48 80.21, 30.12 92.94 2.97 3
4 02/19/2021 17:31:29 -80.23, 126.53 87.85 02/19/2021 17:31:00 -80.24, 126.43 87.85 2.57 29
5 02/19/2021 18:20:55 80.23, -65.82 92.14 02/19/2021 18:22:00 80.20, -65.71 92.15 3.45 65
6 02/21/2021 23:05:11 80.25,-136.68 91.39 02/21/2021 23:04:14 80.25,-136.84 91.36 3.08 57
7 02/21/2021 23:54:39 -80.22, 30.68 88.68 02/21/2021 23:55:12 -80.22, 30.79 88.66 2.18 33
8 02/24/2021 05:28:21 80.24, 127.44 90.55 02/24/2021 05:28:26 80.24, 127.32 90.54 2.32 5
9 02/26/2021 11:02:05 -80.23,-136.07 90.29 02/26/2021 11:01:39 -80.25,-136.12 90.28 2.23 26



Historial Predications of SNOs between LANDSAT-8 and NOAA-19
